FW0746 Weather Reports


time (UTC)temp
C
wind
direction
speed
KPH
gust
KPH
rain 1hr
cm
rain 24hr
cm
rain mn
cm
humidity
%
barometer
mb
20200229084217 13 0.0 0.0 0.00 0.00 0.00 85 1016.0
20200229083216 13 0.0 0.0 0.00 0.00 0.00 84 1016.2
20200229082216 13 0.0 0.0 0.00 0.00 0.00 83 1016.3
20200229081217 14 0.0 0.0 0.00 0.00 0.00 82 1016.5
20200229080216 15 0.0 0.0 0.00 0.00 0.00 82 1016.5
20200229075216 15 0.0 0.0 0.00 0.00 0.00 85 1016.4
20200229074216 15 0.0 0.0 0.00 0.00 0.00 85 1016.3
20200229073216 15 0.0 0.0 0.00 0.00 0.00 85 1016.4
20200229072216 15 0.0 0.0 0.00 0.00 0.00 85 1016.5
20200229071216 15 0.0 0.0 0.00 0.00 0.00 85 1016.7
20200229070218 15 0.0 0.0 0.00 0.00 0.00 84 1016.6
20200229065215 15 0.0 0.0 0.00 0.00 0.00 85 1016.5
20200229064215 15 0.0 0.0 0.00 0.00 0.00 85 1016.6
20200229063215 15 0.0 0.0 0.00 0.00 0.00 85 1016.7
20200229062215 15 0.0 0.0 0.00 0.00 0.00 85 1016.8
20200229061215 15 0.0 0.0 0.00 0.00 0.00 84 1016.8
20200229060215 15 0.0 0.0 0.00 0.00 0.00 84 1017.0
20200229055215 15 0.0 0.0 0.00 0.00 0.00 84 1017.0
20200229054217 15 0.0 0.0 0.00 0.00 0.00 84 1016.8
20200229053217 15 0.0 0.0 0.00 0.00 0.00 84 1016.7
20200229052217 15 0.0 0.0 0.00 0.00 0.00 84 1016.6
20200229051217 15 0.0 0.0 0.00 0.00 0.00 84 1016.7
20200229050217 15 0.0 0.0 0.00 0.00 0.00 84 1016.6
20200229045217 15 0.0 0.0 0.00 0.00 0.00 83 1016.7
20200229044217 15 0.0 0.0 0.00 0.00 0.00 83 1016.6
20200229043217 15 0.0 0.0 0.00 0.00 0.00 83 1016.6
20200229042217 15 0.0 0.0 0.00 0.00 0.00 83 1016.7
20200229041217 16 0.0 0.0 0.00 0.00 0.00 83 1016.6
20200229040217 16 0.0 0.0 0.00 0.00 0.00 82 1016.7
20200229035217 16 0.0 0.0 0.00 0.00 0.00 82 1016.7
20200229034217 16 0.0 0.0 0.00 0.00 0.00 81 1016.6
20200229033217 16 0.0 0.0 0.00 0.00 0.00 79 1016.6
20200229032217 17 0.0 0.0 0.00 0.00 0.00 77 1016.7
20200229031217 17 0.0 0.0 0.00 0.00 0.00 78 1016.7
20200229030217 17 0.0 0.0 0.00 0.00 0.00 79 1016.7
20200229025217 17 0.0 0.0 0.00 0.00 0.00 79 1016.5
20200229024218 17 0.0 0.0 0.00 0.00 0.00 78 1016.2
20200229023217 17 0.0 0.0 0.00 0.00 0.00 75 1016.1
20200229022217 18 0.0 0.0 0.00 0.00 0.00 73 1015.9
20200229021217 18 0.0 0.0 0.00 0.00 0.00 73 1015.9
20200229020217 18 315 1.6 4.8 0.00 0.00 0.00 71 1015.9
20200229015215 19 315 3.2 6.4 0.00 0.00 0.00 68 1015.8
20200229014217 20 292 1.6 3.2 0.00 0.00 0.00 64 1015.7
20200229013218 20 315 3.2 8.0 0.00 0.00 0.00 61 1015.8
20200229012217 21 315 3.2 6.4 0.00 0.00 0.00 58 1015.7
20200229011217 21 315 4.8 8.0 0.00 0.00 0.00 56 1015.5
20200229010217 22 337 3.2 6.4 0.00 0.00 0.00 57 1015.5
20200229005217 22 315 3.2 6.4 0.00 0.00 0.00 59 1015.4
20200229004217 23 292 4.8 11.3 0.00 0.00 0.00 58 1015.2
20200229003216 23 270 6.4 8.0 0.00 0.00 0.00 56 1015.1
20200229002216 25 270 4.8 8.0 0.00 0.00 0.00 56 1015.0
20200229001217 25 292 8.0 12.9 0.00 0.00 0.00 54 1014.9
20200229000217 26 292 6.4 14.5 0.00 0.00 0.00 52 1014.8
20200228235216 27 270 3.2 8.0 0.00 0.00 0.00 52 1014.6
20200228234217 28 270 3.2 4.8 0.00 0.00 0.00 50 1014.5
20200228233217 28 247 4.8 8.0 0.00 0.00 0.00 48 1014.5
20200228232216 29 270 1.6 4.8 0.00 0.00 0.00 48 1014.4
20200228231217 30 247 3.2 3.2 0.00 0.00 0.00 48 1014.4
20200228230217 30 225 3.2 4.8 0.00 0.00 0.00 47 1014.4
20200228225217 30 270 3.2 6.4 0.00 0.00 0.00 48 1014.3
20200228224217 30 0 3.2 6.4 0.00 0.00 0.00 47 1014.2
20200228223217 31 315 1.6 8.0 0.00 0.00 0.00 46 1014.2
20200228222217 31 247 3.2 8.0 0.00 0.00 0.00 46 1014.2
20200228221216 31 292 1.6 3.2 0.00 0.00 0.00 47 1014.3
20200228220216 31 270 3.2 6.4 0.00 0.00 0.00 47 1014.3
20200228215217 31 270 6.4 9.7 0.00 0.00 0.00 44 1014.4
20200228214217 31 270 1.6 3.2 0.00 0.00 0.00 43 1014.6
20200228213216 31 225 3.2 6.4 0.00 0.00 0.00 43 1014.6
20200228212217 31 292 3.2 8.0 0.00 0.00 0.00 45 1014.8
20200228211217 31 292 1.6 3.2 0.00 0.00 0.00 44 1014.9
20200228210216 30 292 1.6 3.2 0.00 0.00 0.00 46 1015.1
20200228205216 30 315 3.2 6.4 0.00 0.00 0.00 47 1015.2
20200228204216 30 270 1.6 3.2 0.00 0.00 0.00 45 1015.4
20200228203216 30 315 1.6 3.2 0.00 0.00 0.00 44 1015.6
20200228202217 30 225 3.2 4.8 0.00 0.00 0.00 46 1015.7
20200228201217 29 247 3.2 8.0 0.00 0.00 0.00 52 1015.8
20200228200217 28 270 1.6 3.2 0.00 0.00 0.00 52 1016.0
20200228195217 28 292 4.8 9.7 0.00 0.00 0.00 49 1016.1
20200228194216 28 292 4.8 8.0 0.00 0.00 0.00 55 1016.2
20200228193216 28 315 4.8 8.0 0.00 0.00 0.00 54 1016.3
20200228192217 28 292 3.2 6.4 0.00 0.00 0.00 54 1016.4
20200228191217 28 292 3.2 8.0 0.00 0.00 0.00 54 1016.6
20200228190217 27 202 1.6 1.6 0.00 0.00 0.00 52 1016.9
20200228185216 27 292 4.8 9.7 0.00 0.00 0.00 55 1017.1
20200228184216 27 315 6.4 11.3 0.00 0.00 0.00 55 1017.3
20200228183216 27 315 4.8 6.4 0.00 0.00 0.00 56 1017.4
20200228182216 27 292 3.2 8.0 0.00 0.00 0.00 57 1017.7
20200228181217 27 315 3.2 6.4 0.00 0.00 0.00 57 1017.6
20200228180216 26 337 3.2 8.0 0.00 0.00 0.00 59 1017.7
20200228175216 25 337 3.2 6.4 0.00 0.00 0.00 62 1017.7
20200228174216 25 315 1.6 3.2 0.00 0.00 0.00 63 1017.7
20200228173216 24 337 3.2 6.4 0.00 0.00 0.00 64 1017.8
20200228172216 24 315 3.2 3.2 0.00 0.00 0.00 65 1017.8
20200228171216 23 337 1.6 3.2 0.00 0.00 0.00 67 1017.9
20200228170216 23 337 1.6 3.2 0.00 0.00 0.00 69 1018.0
20200228165217 22 337 1.6 6.4 0.00 0.00 0.00 68 1018.0
20200228164217 23 337 1.6 3.2 0.00 0.00 0.00 67 1018.1
20200228163217 22 0.0 1.6 0.00 0.00 0.00 69 1018.2
20200228162216 22 315 1.6 3.2 0.00 0.00 0.00 71 1018.1
20200228161216 21 337 1.6 3.2 0.00 0.00 0.00 75 1018.0
20200228160217 21 337 1.6 3.2 0.00 0.00 0.00 78 1018.0
20200228155216 20 337 1.6 3.2 0.00 0.00 0.00 79 1017.9
20200228154216 20 0.0 1.6 0.00 0.00 0.00 80 1017.7
20200228153216 18 337 3.2 6.4 0.00 0.00 0.00 82 1017.5
20200228152216 17 0.0 1.6 0.00 0.00 0.00 85 1017.5
20200228151216 16 337 1.6 3.2 0.00 0.00 0.00 87 1017.5
20200228150216 15 0.0 1.6 0.00 0.00 0.00 88 1017.3
20200228145216 14 0.0 1.6 0.00 0.00 0.00 88 1017.3
20200228144216 14 0.0 0.0 0.00 0.00 0.00 89 1017.2
20200228143217 13 0.0 0.0 0.00 0.00 0.00 89 1017.1
20200228142216 13 0.0 0.0 0.00 0.00 0.00 89 1016.9
20200228141216 12 0.0 0.0 0.00 0.00 0.00 88 1016.8
20200228140216 11 0.0 0.0 0.00 0.00 0.00 88 1016.6
20200228135216 11 0.0 0.0 0.00 0.00 0.00 88 1016.5
20200228134216 11 0.0 0.0 0.00 0.00 0.00 88 1016.4
20200228133216 11 0.0 0.0 0.00 0.00 0.00 88 1016.3
20200228132216 11 0.0 0.0 0.00 0.00 0.00 88 1016.2
20200228131216 11 315 1.6 3.2 0.00 0.00 0.00 88 1016.2
20200228130216 12 0.0 0.0 0.00 0.00 0.00 88 1016.1
20200228125216 12 0.0 0.0 0.00 0.00 0.00 88 1016.1
20200228124216 12 0.0 0.0 0.00 0.00 0.00 88 1016.0
20200228123216 12 315 1.6 3.2 0.00 0.00 0.00 88 1015.9
20200228122216 12 337 1.6 4.8 0.00 0.00 0.00 89 1015.8
20200228121216 12 315 3.2 6.4 0.00 0.00 0.00 88 1015.8
20200228120217 12 315 1.6 3.2 0.00 0.00 0.00 88 1015.9
20200228115216 12 0.0 0.0 0.00 0.00 0.00 88 1015.9
20200228114216 12 0.0 0.0 0.00 0.00 0.00 88 1015.7
20200228113216 12 0.0 0.0 0.00 0.00 0.00 88 1015.6
20200228112216 11 0.0 0.0 0.00 0.00 0.00 88 1015.4
20200228111217 11 0.0 0.0 0.00 0.00 0.00 88 1015.5
20200228110216 12 0.0 0.0 0.00 0.00 0.00 88 1015.4
20200228105216 12 0.0 0.0 0.00 0.00 0.00 88 1015.5
20200228104216 12 0.0 1.6 0.00 0.00 0.00 88 1015.6
20200228103216 12 315 1.6 3.2 0.00 0.00 0.00 88 1015.8
20200228102216 12 315 3.2 3.2 0.00 0.00 0.00 88 1015.7
20200228101216 12 292 3.2 3.2 0.00 0.00 0.00 88 1015.8
20200228100216 12 270 1.6 3.2 0.00 0.00 0.00 88 1015.7
20200228095217 13 270 1.6 3.2 0.00 0.00 0.00 88 1015.8
20200228094216 12 0.0 0.0 0.00 0.00 0.00 88 1015.9
20200228093216 12 0.0 0.0 0.00 0.00 0.00 87 1015.8
20200228092216 12 0.0 0.0 0.00 0.00 0.00 87 1015.8
20200228091216 12 0.0 0.0 0.00 0.00 0.00 88 1016.0
20200228090216 13 0.0 0.0 0.00 0.00 0.00 88 1016.1
20200228085216 13 0.0 0.0 0.00 0.00 0.00 88 1016.3